Theta_e
349 348 349 350 351 355 353 351 352 350 350 350 349 348 348 347 347 346 345 343 343 343 342 341 340 339 336 334 335 335 333 336 336 337 336 334 343 341 347 346 345 345 347 346 347 346 344 342 342 340 339 341 339 338 337 336 335 334 336 334 333 334 334 334 333 333 332 331 331 330 330 329 332 332 332 332 332 334 336 337 337 338 337 337 337
351 355 351 353 355 354 355 353 354 352 352 352 351 351 347 346 346 344 341 340 340 341 342 341 340 339 338 336 338 336 337 335 336 337 335 336 338 345 347 345 344 343 345 346 347 346 345 344 342 341 340 340 340 339 338 336 335 335 335 334 333 334 334 334 334 333 332 331 330 330 329 330 332 332 332 332 332 333 335 336 337 337 337 337 337
352 351 353 351 355 354 353 353 351 353 354 349 351 349 349 347 345 344 343 342 342 343 341 340 340 339 340 339 337 337 336 336 335 336 337 337 336 342 344 346 344 344 343 344 345 346 346 344 343 342 341 341 341 340 339 337 335 335 335 334 333 334 334 335 334 333 332 331 331 330 329 330 331 332 331 331 331 331 335 336 337 337 337 337 337
354 353 352 350 352 353 353 353 353 352 352 349 348 348 346 343 345 345 345 345 343 344 344 342 341 340 341 338 340 339 337 335 335 335 334 339 340 340 348 345 343 342 343 343 344 345 346 345 344 343 343 343 342 341 339 338 337 336 335 335 334 335 335 335 334 333 332 331 331 330 330 329 330 332 332 331 330 333 334 336 337 337 337 337 337
357 354 352 352 352 353 351 351 351 353 352 349 347 347 346 346 345 346 345 342 341 341 341 340 340 340 341 339 340 341 338 338 337 336 339 346 342 341 343 341 341 341 342 344 342 344 345 345 345 345 344 341 343 342 340 340 338 336 336 336 336 335 335 335 333 333 332 331 330 331 330 329 329 332 332 331 331 332 334 335 336 336 336 336 336
357 355 352 351 352 352 349 351 351 350 349 350 348 348 345 344 343 342 343 341 339 339 339 338 338 338 338 339 339 340 341 339 339 339 341 343 342 339 344 340 341 341 342 344 344 342 343 344 344 345 345 343 342 341 340 340 339 337 337 337 336 336 335 334 334 333 332 332 331 330 330 329 329 331 332 331 331 332 334 335 335 336 336 336 336
352 352 352 350 347 352 350 349 352 349 347 350 348 345 344 342 341 340 339 339 338 338 337 336 337 336 337 339 338 339 341 340 339 340 340 339 343 343 343 340 340 342 342 343 343 343 342 342 344 344 344 345 342 341 341 340 340 339 338 338 337 337 335 335 334 333 332 331 330 331 330 329 329 330 332 331 331 332 334 335 335 336 336 336 336
354 354 353 351 349 348 351 352 351 349 349 348 346 343 342 343 342 341 338 337 336 336 336 335 335 335 336 336 336 337 339 340 339 339 342 342 341 340 341 339 339 336 339 338 341 341 342 341 341 342 344 345 342 341 341 341 341 340 339 338 338 337 336 335 334 333 332 331 330 331 330 329 329 330 332 331 331 332 333 334 335 336 335 335 335
355 354 357 351 351 349 348 350 350 347 347 347 344 345 342 342 341 341 340 336 336 335 335 335 335 335 335 335 336 336 336 337 339 342 342 339 339 339 341 343 339 340 338 339 339 339 340 341 341 340 341 342 343 341 341 341 341 341 340 339 338 338 337 336 334 333 332 331 330 331 331 330 329 329 333 331 331 331 332 334 335 335 335 335 335
352 354 359 351 350 349 349 348 347 347 346 345 344 344 344 340 338 340 339 338 335 334 334 334 335 335 335 336 337 337 337 336 337 338 339 338 339 339 340 340 342 340 337 337 336 334 338 340 341 340 340 340 341 343 341 341 341 341 341 340 339 339 338 337 336 333 332 332 330 331 331 330 329 329 331 331 331 331 332 334 334 334 334 335 335
352 351 349 346 345 346 345 346 347 345 345 340 338 338 340 339 337 336 339 338 336 335 335 334 334 334 334 335 336 336 337 337 337 335 336 337 339 339 341 340 340 338 337 338 337 335 337 338 338 338 337 339 339 341 342 341 341 341 341 340 340 339 339 338 337 333 332 332 330 330 331 331 329 329 329 330 332 331 332 333 334 334 334 334 335
352 350 350 347 346 343 344 344 342 342 340 338 337 336 337 337 337 336 335 335 335 336 335 333 332 332 332 334 334 335 336 337 337 337 338 338 335 337 337 338 337 336 335 337 335 334 335 337 337 337 337 337 338 338 339 340 339 341 342 340 339 339 339 339 337 336 333 331 330 330 331 331 329 329 329 330 332 331 331 332 334 334 334 334 334
344 344 342 345 343 342 341 342 339 339 338 338 338 338 338 338 337 336 334 331 331 334 334 333 329 328 330 330 331 334 334 334 335 337 337 337 339 341 336 334 334 335 337 336 336 337 337 335 335 335 336 337 336 337 337 338 338 340 341 341 339 339 339 338 337 337 334 332 330 330 330 329 329 329 329 330 332 332 331 332 333 333 334 334 333
343 343 343 343 341 340 340 339 339 338 338 338 338 338 338 336 335 333 334 330 329 332 335 330 327 325 324 325 327 330 332 333 335 337 339 338 337 336 335 336 335 335 337 334 336 335 334 335 335 335 335 334 333 334 335 336 337 339 340 340 339 338 338 338 337 336 334 333 330 331 330 330 330 330 330 330 332 332 331 331 333 333 333 333 333
343 345 344 340 339 338 338 338 337 337 336 335 336 335 335 334 333 331 329 331 330 334 334 333 325 327 327 324 321 321 324 328 334 330 331 334 337 334 336 335 335 336 337 333 333 332 335 336 336 334 334 334 333 334 334 335 335 337 338 339 340 338 338 338 336 336 334 333 331 330 331 330 330 331 331 332 332 332 332 331 332 333 332 333 333
339 338 337 338 338 336 336 337 336 337 337 334 334 331 332 332 332 332 331 327 327 329 333 334 331 326 320 321 321 321 316 319 322 326 329 330 337 336 336 337 337 336 335 333 332 333 334 334 334 334 335 335 335 332 333 334 335 335 334 336 337 338 339 338 337 336 334 333 333 331 332 331 330 331 331 331 332 331 332 331 331 332 332 333 332
338 337 335 335 336 337 337 337 338 338 337 335 334 333 332 332 332 332 331 329 327 329 331 334 333 334 326 322 319 317 316 320 322 322 330 327 328 332 336 335 334 336 336 335 335 334 334 334 333 335 336 335 333 334 333 334 332 334 333 335 336 336 338 337 337 337 336 334 333 332 331 332 331 331 331 332 332 332 331 331 331 331 332 332 332
336 335 335 335 337 337 337 336 337 337 338 336 335 336 334 332 332 332 331 332 330 328 327 331 333 334 335 332 326 319 319 322 320 315 324 328 328 329 330 332 336 334 334 334 333 333 333 333 334 333 334 334 333 332 332 335 335 332 332 333 334 333 333 335 337 337 337 336 334 333 332 331 330 331 331 331 332 332 332 332 331 331 331 332 332
338 336 335 337 337 338 338 337 335 336 336 337 335 333 333 333 333 332 332 332 332 327 327 328 330 332 332 332 331 330 330 322 317 320 316 321 325 326 327 329 332 334 332 332 332 332 333 333 332 333 333 334 335 334 333 335 335 334 335 334 333 331 330 330 333 336 336 336 336 335 333 333 331 331 332 332 332 332 332 332 331 331 331 331 331
336 335 336 337 336 337 337 336 336 335 334 333 332 333 334 334 334 335 334 334 332 329 328 329 325 326 329 329 329 331 331 330 327 322 319 316 318 324 326 327 328 331 334 335 335 334 332 331 331 332 333 333 334 334 332 333 334 334 334 334 332 331 330 330 329 329 333 335 337 337 334 334 332 332 332 332 332 332 332 332 332 331 330 330 330
336 336 335 334 335 335 335 335 334 333 332 332 332 332 332 332 332 333 332 332 333 332 330 328 328 326 326 326 327 327 327 326 327 325 320 317 316 318 319 324 326 328 331 335 335 336 334 333 334 332 332 333 334 334 334 333 334 334 333 331 332 330 330 329 326 326 326 332 336 336 334 334 333 333 333 332 332 332 332 332 332 331 331 330 330
338 335 334 333 334 333 333 333 333 332 332 331 331 331 332 332 333 333 332 332 331 331 330 329 329 329 328 327 324 324 323 323 323 323 322 322 317 317 319 319 318 322 327 329 333 334 336 333 332 333 332 332 333 333 333 333 333 333 332 330 331 331 330 328 324 323 323 327 334 335 334 335 335 334 333 333 333 332 332 332 332 332 332 330 330
338 334 333 332 333 333 333 332 332 331 330 330 330 330 331 332 333 333 332 331 330 330 329 329 329 328 327 326 324 324 322 320 321 322 321 319 318 318 319 321 320 320 323 327 330 333 335 334 331 331 329 331 333 335 334 333 332 331 329 329 329 331 330 327 324 322 322 327 333 335 335 335 335 334 333 333 333 333 332 332 332 331 331 331 331
333 331 330 331 332 332 331 330 330 329 329 330 331 331 331 332 332 331 330 330 330 329 328 327 325 325 325 324 323 324 324 323 323 323 323 322 320 318 319 321 321 321 324 325 330 333 333 331 332 331 331 332 334 335 334 334 333 330 329 328 327 328 330 329 326 324 321 326 329 334 335 336 335 334 334 334 334 334 333 334 332 331 331 331 332
329 328 328 329 330 329 329 328 328 329 329 329 329 330 331 332 330 327 327 327 327 325 324 324 323 323 323 324 323 324 323 323 323 322 323 323 322 318 320 321 317 319 322 323 325 329 331 331 332 333 333 333 334 334 332 332 332 330 327 327 324 324 325 329 328 323 321 320 325 330 333 334 335 334 334 333 334 334 333 331 329 327 327 329 330
327 327 328 328 329 328 328 328 328 328 328 328 329 330 330 329 327 326 326 327 327 324 324 324 323 323 324 322 321 322 322 323 323 323 322 321 319 318 318 319 320 319 321 321 324 325 328 333 333 333 332 330 331 333 333 332 332 328 326 329 325 322 321 323 326 325 323 320 320 322 325 329 331 331 331 332 332 328 328 327 324 323 322 322 328
326 328 328 329 328 328 327 327 327 328 328 328 329 328 327 327 326 326 326 327 325 324 323 324 322 322 322 321 321 321 321 321 322 322 322 321 321 320 319 315 316 319 318 320 320 321 323 325 329 329 330 330 331 333 333 333 330 327 324 328 330 321 319 319 323 325 324 322 320 320 321 325 327 325 325 325 325 326 328 328 326 324 323 322 325
328 329 328 327 327 327 327 327 328 329 329 328 327 326 326 325 324 324 323 325 323 322 321 322 321 321 321 320 320 319 320 321 321 322 322 322 321 321 321 319 314 312 316 316 318 319 324 323 326 328 329 329 331 332 332 331 331 326 325 329 331 327 318 316 318 322 324 322 321 320 320 322 324 324 325 325 327 328 328 328 327 325 323 323 327
327 328 327 327 329 330 328 329 328 328 326 326 326 325 325 324 323 322 321 322 322 321 320 320 320 320 319 319 318 318 318 320 320 321 321 321 321 321 321 319 318 314 312 312 315 317 320 324 320 324 327 329 329 330 331 332 330 329 329 329 331 331 321 316 315 319 322 320 319 318 320 323 326 327 328 328 328 329 329 328 326 325 324 327 329
328 328 328 327 328 328 329 327 326 325 324 324 325 324 323 322 322 321 322 322 321 321 320 319 318 318 318 318 317 317 318 318 318 319 319 320 320 321 320 320 320 317 316 313 314 319 318 322 321 319 322 325 325 326 329 330 326 327 331 330 330 331 320 314 313 315 318 316 315 314 316 318 323 327 330 329 327 328 328 327 325 325 327 330 329
326 327 327 326 328 328 328 325 324 323 323 322 323 322 322 321 321 321 321 321 319 319 319 318 318 317 316 315 316 315 316 317 317 317 318 319 320 320 319 320 319 320 317 316 312 317 320 315 317 319 318 321 320 321 324 328 328 327 329 330 331 325 319 318 314 313 314 314 314 314 318 319 318 322 327 328 328 328 328 328 329 328 330 329 325
328 328 329 324 324 325 326 323 323 321 321 321 321 321 321 320 321 320 320 319 318 317 317 317 316 315 314 313 313 314 315 315 315 315 315 316 319 319 319 319 319 319 317 315 314 313 320 317 317 317 319 318 317 315 317 322 327 323 329 329 330 323 323 323 314 312 312 312 313 316 319 321 320 321 325 328 328 329 329 328 329 329 327 323 321
329 328 324 322 323 324 321 321 320 320 319 320 321 321 320 320 320 320 319 318 317 317 316 315 314 314 313 312 312 312 312 311 312 313 313 313 314 315 317 317 317 317 315 313 311 312 314 317 316 315 316 316 313 314 313 316 321 325 324 327 328 328 328 325 322 312 311 311 311 311 311 313 316 322 324 325 328 327 323 322 323 320 322 322 319
327 327 322 327 321 321 320 319 319 319 319 319 320 320 319 319 320 321 319 317 316 315 315 313 313 313 312 310 310 311 311 310 310 310 310 310 310 311 312 314 314 316 317 312 310 310 308 312 312 313 312 313 310 312 311 312 316 318 319 321 325 327 326 328 326 322 310 311 310 310 310 311 311 315 317 315 316 317 316 315 316 316 318 318 314
325 324 325 320 322 320 319 319 319 319 319 319 319 318 318 317 317 317 318 317 315 314 313 312 312 312 311 310 309 310 311 309 309 309 309 307 307 307 309 311 312 313 314 314 311 307 307 308 311 309 309 310 309 309 310 312 314 316 315 316 320 323 322 324 326 327 314 308 308 309 309 309 310 310 312 313 312 312 313 313 313 313 313 313 311
321 320 320 320 319 319 318 317 316 316 316 316 317 318 317 316 316 315 315 315 315 314 313 312 311 311 310 310 309 309 309 308 308 308 308 307 305 305 306 308 309 310 312 311 312 308 306 305 306 307 308 307 307 308 308 309 310 312 313 315 318 319 319 320 323 325 322 311 308 308 309 309 309 309 310 311 311 311 311 312 312 312 311 312 312
324 321 319 319 317 317 316 314 314 313 313 313 312 314 316 316 315 315 315 314 313 313 313 312 313 311 310 309 309 309 308 307 306 306 307 306 305 304 304 306 306 309 310 309 309 309 305 303 303 306 306 305 306 306 306 305 306 308 310 312 314 315 315 317 321 324 319 316 311 309 309 308 308 308 309 309 310 310 309 310 310 311 310 311 310
319 319 317 317 316 314 313 312 312 311 310 309 309 309 313 314 314 314 314 314 313 312 312 313 312 311 309 309 309 309 307 306 305 305 306 305 305 304 303 304 305 306 307 306 306 306 304 302 302 302 303 302 302 303 304 304 304 305 306 309 311 312 312 313 318 316 314 317 317 315 309 308 308 307 308 308 309 309 309 309 309 310 310 310 309
317 316 316 315 314 312 311 311 310 309 307 306 305 307 309 313 312 312 311 312 312 311 309 309 310 311 309 308 309 309 307 306 305 304 305 305 305 303 303 303 303 304 304 304 304 303 302 301 301 301 301 302 302 300 303 304 304 305 304 305 306 309 311 311 312 309 310 311 312 312 312 311 311 310 308 308 308 308 309 308 308 309 309 309 308
316 315 314 313 312 311 310 309 309 308 306 304 303 303 306 310 311 309 310 310 310 309 309 307 307 307 309 308 308 308 308 306 304 304 303 304 305 303 303 303 303 302 302 303 302 302 301 301 300 299 300 300 300 301 302 302 302 303 305 305 304 304 307 310 312 306 306 308 309 314 314 311 310 309 308 308 308 308 308 309 310 310 310 309 307
317 314 313 312 310 309 308 308 307 306 305 303 300 300 302 304 312 308 308 308 308 308 307 307 306 306 306 308 309 308 310 310 305 304 303 303 305 303 303 303 303 302 302 302 302 301 301 300 299 300 299 299 299 299 298 299 299 300 304 305 303 304 306 308 311 308 306 305 307 311 315 316 314 314 313 312 312 310 310 309 311 310 310 308 306
314 313 312 311 309 308 307 306 306 305 303 301 299 296 298 301 309 307 307 307 307 307 307 306 305 305 305 306 310 310 309 310 307 301 299 299 301 304 303 303 302 302 301 301 301 301 301 300 299 299 298 297 298 298 298 299 302 303 303 302 301 302 304 306 307 307 305 304 305 306 312 311 313 315 314 313 314 312 313 313 314 314 311 307 306
313 312 311 309 308 307 306 305 304 304 302 298 294 293 294 295 304 307 306 305 306 306 306 305 304 304 304 304 305 308 307 305 304 300 299 298 298 297 298 301 303 303 301 300 300 301 300 299 300 299 298 297 298 299 299 300 302 301 301 301 301 301 300 302 301 305 306 303 303 303 309 308 309 310 312 307 309 313 315 315 309 308 308 306 306
312 312 310 309 308 307 306 305 304 303 300 295 292 293 293 293 296 305 304 303 303 303 304 304 304 304 303 303 303 304 304 303 303 300 302 300 297 297 297 297 296 296 297 300 301 300 300 299 298 299 299 298 298 300 300 300 301 301 301 301 300 299 299 301 301 301 304 304 301 301 305 307 307 305 303 303 304 305 304 301 299 300 304 306 305
311 309 308 307 306 306 305 304 303 301 299 293 292 293 293 292 292 301 303 302 301 301 301 301 302 302 302 302 302 302 302 304 302 298 299 303 300 297 297 297 299 299 295 294 296 303 302 300 299 300 300 299 299 300 301 301 302 300 300 299 299 299 299 299 301 303 303 302 299 298 300 305 305 302 300 301 303 304 303 301 300 300 299 302 305
309 308 307 306 306 305 304 303 302 300 297 293 292 292 293 292 292 297 304 302 301 300 300 300 300 300 301 300 300 300 300 299 297 296 298 301 306 306 306 304 304 305 301 299 298 299 302 303 301 300 301 302 300 301 303 302 301 300 299 298 299 298 298 298 301 302 304 302 297 297 298 302 305 303 299 300 301 302 302 300 299 299 299 299 301
308 307 306 305 305 304 304 303 302 300 297 291 291 292 292 292 292 300 306 305 302 300 299 299 299 299 299 300 300 299 298 297 296 295 297 301 306 306 305 303 302 305 306 304 304 304 304 304 303 303 302 302 302 302 302 303 302 301 301 299 299 299 299 300 299 300 301 301 298 296 293 299 305 303 300 299 300 300 300 300 299 299 299 299 299
307 307 306 305 304 303 303 303 301 299 297 291 291 292 292 292 294 308 306 305 304 302 300 299 298 298 298 298 298 298 297 296 295 292 294 301 304 303 303 303 303 303 306 304 299 298 300 302 302 302 303 303 299 299 300 301 302 301 301 300 299 298 296 295 294 296 297 299 298 295 293 297 304 302 301 300 299 297 299 299 299 300 299 299 299
306 305 305 304 304 303 302 301 300 299 297 293 291 292 292 292 297 307 306 304 303 303 301 300 299 298 298 298 297 297 297 295 293 291 292 298 302 301 301 301 302 303 302 310 301 297 296 296 297 295 295 296 296 296 296 297 299 301 299 296 294 295 293 291 292 293 294 296 296 295 294 297 300 301 299 299 297 296 297 298 299 299 298 299 298
305 305 303 302 302 301 300 300 300 299 297 294 291 292 292 292 296 308 306 304 302 301 301 302 301 299 299 301 300 296 296 295 292 291 292 298 300 299 299 299 299 299 300 303 307 305 300 299 298 298 296 296 295 297 297 297 298 300 297 293 295 294 292 292 290 292 293 294 294 295 294 296 297 301 298 300 297 297 297 297 298 298 298 298 298
304 304 303 302 302 302 302 302 302 299 297 296 292 291 292 292 297 306 304 302 302 302 300 299 300 299 298 299 299 296 295 294 291 291 292 295 300 298 298 297 297 297 298 302 302 301 302 301 302 302 301 302 304 303 302 298 299 301 299 296 296 294 292 292 292 291 290 291 294 296 293 295 294 299 297 297 296 296 297 296 296 297 297 298 298
Wind_Speed
3 3 3 2 2 1 2 1 1 1 2 3 1 2 3 3 3 2 3 4 3 3 3 5 6 7 5 6 6 5 6 4 4 5 4 5 3 8 13 12 12 12 14 14 15 15 14 14 13 13 12 14 13 13 11 9 7 6 10 9 8 9 7 7 7 7 6 5 4 4 3 2 2 3 3 3 2 3 3 5 6 8 8 8 9
2 2 2 1 1 1 0 0 1 2 2 1 1 2 3 2 3 3 4 5 4 4 4 5 6 6 6 7 4 6 4 5 4 4 6 4 2 6 13 13 12 13 13 15 16 15 15 14 14 13 14 13 15 14 11 9 8 10 10 9 9 9 8 8 9 8 7 6 5 4 4 4 3 4 4 3 4 3 3 5 7 8 9 8 8
3 2 2 3 1 0 1 2 2 1 1 2 2 2 2 3 3 3 3 4 4 4 5 4 5 6 6 6 6 6 7 4 5 4 3 3 4 1 7 12 13 14 14 14 15 16 16 15 15 15 16 14 17 15 12 10 9 11 9 10 10 9 9 10 10 10 9 8 7 5 3 4 5 5 5 3 3 3 3 5 7 9 9 9 7
2 1 1 2 1 1 1 1 1 1 1 2 2 2 3 3 4 4 3 3 4 4 4 5 5 6 5 7 5 5 4 6 8 5 7 3 1 1 4 2 3 8 12 14 15 15 16 16 16 17 18 14 17 17 13 13 13 12 11 11 10 10 11 12 12 11 10 8 7 6 5 4 6 5 6 5 4 3 4 6 8 9 10 9 8
0 1 0 1 1 1 2 1 1 1 1 2 3 3 3 3 3 3 3 4 4 4 5 4 4 5 6 7 5 3 5 3 4 7 4 1 1 2 5 4 6 11 15 14 15 16 17 17 17 18 18 14 19 18 15 15 13 11 12 13 11 11 12 13 12 12 9 8 8 7 7 6 7 6 6 6 6 5 4 6 8 9 10 10 9
1 1 2 2 1 0 1 1 0 1 2 2 2 2 3 3 3 3 4 4 4 4 4 4 4 5 5 5 5 4 4 4 4 3 3 2 1 1 5 6 5 5 6 12 15 15 16 16 18 18 18 17 15 17 15 14 14 13 14 14 13 13 14 14 13 11 10 10 9 8 8 8 8 7 7 7 5 5 5 6 8 10 10 10 9
2 1 1 2 2 1 1 2 1 2 3 1 2 4 3 3 4 4 4 4 4 5 5 5 5 6 5 4 5 5 3 4 4 6 6 5 5 4 5 5 3 2 4 5 11 16 17 18 18 18 18 16 15 17 16 16 15 14 15 15 15 15 14 15 14 12 12 11 10 10 10 9 9 8 8 7 7 6 6 7 9 11 10 9 10
0 1 1 2 2 2 1 0 1 2 2 2 3 3 3 3 3 4 5 5 5 5 4 5 5 6 6 5 5 4 4 3 3 4 2 3 6 5 4 5 6 7 9 8 6 11 20 18 18 17 17 16 16 17 17 18 17 17 16 17 16 15 16 16 14 12 12 11 10 10 11 11 10 10 10 9 8 8 7 7 10 14 12 11 11
1 0 0 2 1 1 1 2 2 2 2 2 3 2 3 2 3 4 4 6 6 7 6 6 6 6 6 6 6 5 5 5 4 4 3 5 7 6 5 4 6 7 5 5 6 4 10 16 17 18 17 16 16 17 18 17 19 18 18 18 18 17 17 17 15 14 13 12 11 12 12 12 11 11 12 10 9 9 8 8 9 14 14 13 12
0 0 0 2 2 1 2 3 2 2 2 2 2 2 2 3 4 3 4 5 5 6 7 6 6 6 6 7 7 6 6 6 5 5 5 5 4 3 4 5 5 3 7 7 1 7 9 11 19 19 19 17 17 16 18 18 19 19 19 19 18 18 18 18 16 15 14 14 12 12 13 13 12 12 14 11 11 10 10 9 10 16 15 15 14
2 2 2 4 4 3 4 3 2 2 2 3 4 4 5 4 4 5 3 4 4 5 5 6 7 7 7 8 7 8 7 6 6 6 7 4 3 3 4 4 1 3 2 6 8 10 10 7 6 8 12 19 18 17 17 18 18 20 19 19 19 19 19 19 17 15 15 14 13 13 13 14 13 12 13 13 12 12 12 11 11 13 15 15 13
1 2 1 2 2 4 3 3 3 3 4 4 4 4 5 5 4 4 5 5 4 4 4 5 6 7 7 7 7 7 8 7 6 6 5 5 6 5 4 2 1 2 2 3 5 7 7 5 4 6 8 13 19 17 17 17 16 17 19 19 20 19 19 20 18 16 16 15 14 14 14 15 13 13 15 14 14 14 13 12 11 12 13 14 14
5 6 5 4 4 4 3 4 4 4 5 4 3 4 4 3 4 4 5 6 5 5 4 5 7 7 6 7 8 7 9 9 8 6 4 4 3 2 3 6 6 4 4 2 2 4 3 4 9 5 8 7 11 18 18 17 16 16 18 18 19 20 20 20 19 16 16 16 14 15 14 15 14 15 15 15 15 15 14 13 13 12 12 13 14
3 3 3 3 4 4 4 4 5 5 5 4 4 4 4 4 4 4 4 6 6 6 4 7 5 6 8 9 8 5 5 7 2 2 2 3 5 6 6 6 6 5 3 3 5 3 5 7 7 5 6 7 7 8 12 13 14 16 16 16 17 20 20 20 20 18 16 17 15 16 15 15 14 15 15 15 16 17 16 15 15 14 13 13 14
3 2 2 4 5 5 5 6 5 5 5 5 4 5 4 5 4 5 5 4 5 5 7 5 6 6 7 6 5 9 6 3 4 9 9 8 5 5 6 5 7 5 3 5 5 6 7 7 7 7 7 7 7 7 8 11 13 16 17 16 16 20 20 22 20 18 17 18 17 17 15 16 16 16 17 16 17 18 17 15 15 15 15 14 14
5 5 5 4 4 4 4 4 4 4 4 4 4 5 4 4 4 5 4 5 6 7 6 3 3 6 7 5 7 5 7 4 10 9 8 7 4 5 3 4 5 4 2 4 5 6 6 6 6 5 6 7 6 5 8 8 14 17 18 16 16 16 20 21 20 19 18 17 16 18 15 16 17 16 18 16 16 17 18 17 16 16 15 15 15
5 4 5 5 5 4 3 3 2 2 3 3 3 4 5 5 6 5 6 6 7 6 6 4 4 2 2 4 3 2 4 8 9 8 2 7 7 5 4 5 4 5 6 7 4 4 5 5 6 5 5 5 5 5 6 7 8 10 13 17 17 17 18 20 22 20 18 18 18 19 17 18 18 17 17 15 15 16 16 17 17 17 16 16 16
5 3 4 4 3 3 3 3 3 3 2 3 3 3 4 5 6 5 7 6 6 7 7 5 5 4 2 1 2 4 7 8 6 7 5 4 6 5 6 6 3 4 6 7 6 5 4 5 4 4 4 4 5 6 7 10 8 8 8 12 19 18 17 17 20 21 21 19 20 19 19 19 18 18 17 17 17 19 18 18 19 18 18 17 18
2 3 3 2 3 3 2 3 3 3 3 3 4 5 6 6 6 5 6 5 5 6 7 7 7 4 6 4 2 3 4 4 6 8 11 4 3 6 5 6 4 3 5 6 6 5 4 5 5 5 5 5 4 6 7 7 10 9 12 14 18 18 17 17 16 20 21 20 21 21 20 20 20 19 18 18 19 19 18 18 19 19 18 18 18
3 2 2 2 3 3 3 3 4 4 5 6 6 6 5 6 6 6 5 4 4 5 6 5 7 7 7 6 5 5 3 4 4 6 6 10 12 7 5 8 8 5 5 5 6 5 5 5 6 5 4 5 6 7 7 7 6 9 9 14 17 19 19 18 17 16 17 20 22 22 21 22 21 20 19 18 19 18 18 19 19 19 18 18 18
3 3 5 5 5 5 5 4 4 5 6 6 5 6 6 6 6 6 5 5 4 4 4 5 6 7 7 7 7 6 6 5 5 5 6 8 8 10 12 9 6 5 6 5 5 4 6 6 5 5 5 5 6 7 5 6 7 8 9 12 15 18 19 19 18 16 15 17 19 22 22 23 23 22 20 18 18 18 18 20 19 19 19 19 19
2 4 5 5 5 4 4 5 6 6 5 6 6 6 6 6 6 6 7 6 6 7 6 6 6 5 6 6 7 8 7 5 4 7 5 3 7 10 9 11 12 9 7 6 6 5 5 5 4 4 5 5 5 5 6 7 6 6 8 12 14 19 20 20 19 18 16 17 13 21 22 23 23 22 21 20 21 21 21 21 21 21 21 19 19
3 5 6 5 4 4 5 5 6 6 6 5 4 5 5 5 5 6 7 8 7 8 8 8 8 7 9 8 8 8 7 8 9 9 7 6 8 9 9 8 9 11 9 8 6 4 3 2 1 3 2 5 6 6 6 7 9 10 13 13 14 18 21 21 20 20 19 19 14 21 22 24 24 23 23 22 22 20 21 21 22 21 21 21 21
5 5 6 5 4 4 5 6 6 5 5 5 4 5 5 6 5 6 7 7 8 8 8 9 10 8 8 8 7 7 8 9 9 9 8 10 9 9 9 9 8 7 8 8 5 3 5 5 3 2 7 6 6 6 4 6 7 11 9 11 14 18 21 22 21 20 19 19 15 19 23 24 23 24 24 23 22 22 22 21 21 21 21 22 22
5 5 5 5 4 5 5 5 4 4 5 5 5 5 6 5 6 7 7 8 8 9 8 9 10 9 8 7 7 7 8 7 7 8 7 8 7 9 10 9 9 9 7 7 4 4 3 2 3 4 5 6 6 5 4 4 4 6 9 7 13 18 20 22 22 21 20 19 18 17 20 22 24 24 24 24 23 23 21 19 19 18 18 19 20
6 5 3 2 3 5 4 3 4 4 4 4 5 5 6 6 6 7 6 6 7 8 8 8 7 7 6 6 6 6 7 8 8 8 9 9 9 10 11 9 7 8 6 6 7 5 3 4 5 5 4 4 6 5 4 6 6 8 12 11 12 18 19 19 21 21 21 20 20 19 19 19 21 21 21 22 21 19 19 18 17 16 16 17 18
4 2 2 2 3 4 4 4 4 3 3 4 5 5 6 6 6 6 6 6 8 9 8 8 8 9 7 8 6 5 6 7 7 7 7 8 8 8 10 13 12 9 8 6 6 7 7 8 8 8 9 8 7 7 7 6 4 4 10 10 7 17 20 21 20 21 22 22 20 20 19 18 18 18 18 16 19 18 19 18 18 18 17 17 18
2 2 3 4 4 3 3 3 2 2 2 3 3 4 6 6 5 7 8 7 8 9 7 7 8 9 8 9 7 7 7 6 6 6 6 7 7 7 8 9 12 12 9 8 7 6 10 8 6 8 11 10 9 8 8 7 5 9 10 9 9 9 15 17 20 21 22 21 22 18 19 18 18 17 16 15 16 19 18 18 18 18 18 19 20
2 2 3 3 1 1 2 2 2 2 4 4 5 6 6 5 7 9 8 7 6 7 7 8 8 8 8 9 7 6 8 6 6 6 7 6 5 6 7 8 8 10 10 10 9 7 10 10 9 9 12 11 10 10 9 6 4 5 5 7 9 6 13 20 19 19 20 21 19 19 19 19 18 19 19 19 17 18 19 18 18 19 18 22 23
1 2 3 4 2 2 2 3 4 5 5 4 4 5 6 8 8 7 5 5 6 6 6 6 7 8 8 8 8 7 8 8 7 7 6 7 7 6 7 8 7 9 9 10 9 9 9 10 11 10 13 12 13 12 11 11 8 3 3 6 7 7 9 13 14 17 19 17 19 20 20 18 19 19 21 20 18 19 19 18 19 19 22 24 23
3 4 4 4 3 1 2 4 5 5 5 5 6 7 8 6 6 5 5 5 6 6 6 6 7 8 9 10 10 9 9 9 8 9 10 9 7 8 7 7 7 8 10 9 8 7 8 9 8 9 11 12 13 12 13 11 12 9 6 6 8 7 12 11 16 13 13 14 16 16 18 22 19 19 19 20 20 20 20 20 21 23 24 23 22
2 3 2 4 4 3 3 4 5 6 6 6 6 6 5 5 3 4 5 5 6 6 7 8 8 8 10 11 11 10 10 9 10 10 10 11 8 6 7 7 6 7 8 8 8 9 7 8 7 9 12 11 12 15 14 12 12 13 8 9 9 10 1 4 11 15 16 16 16 15 16 16 17 16 17 19 20 21 20 21 21 21 22 22 22
0 2 3 4 3 3 6 5 5 6 6 5 4 3 4 4 3 3 4 6 7 6 7 9 9 9 10 10 11 11 11 11 10 10 11 12 12 11 9 7 7 6 7 7 8 8 6 6 7 8 10 12 11 14 15 14 14 13 13 10 10 8 5 4 5 11 16 17 17 17 17 18 18 17 17 17 18 20 20 20 21 20 21 22 22
2 2 4 2 6 8 4 6 6 5 6 6 4 4 4 4 4 3 5 6 6 7 8 9 9 8 9 10 11 11 10 11 11 12 11 11 12 12 12 12 10 9 5 6 7 7 9 7 8 7 9 12 10 13 13 14 14 14 14 14 10 10 10 8 5 5 13 16 17 17 17 18 18 20 19 17 18 18 18 19 20 20 20 22 21
2 3 2 8 3 4 6 5 3 4 7 5 5 6 6 7 6 5 6 5 6 7 9 9 9 8 9 9 10 10 9 11 11 10 11 12 11 12 12 11 12 11 11 9 7 9 10 9 9 9 11 11 11 13 14 12 11 11 13 14 12 10 11 10 8 4 8 14 16 17 17 17 18 19 20 21 19 17 18 20 21 22 22 21 22
6 6 7 4 6 7 8 8 9 11 10 10 9 6 8 7 7 7 6 7 7 8 8 8 7 7 8 9 10 11 11 11 12 11 10 11 12 11 12 11 11 12 9 12 10 7 9 10 11 12 11 12 12 13 13 12 12 12 11 11 11 12 12 12 11 10 7 11 15 17 17 17 18 20 21 21 20 20 19 19 21 21 20 22 23
2 5 7 8 7 8 8 9 9 10 10 10 10 9 6 6 6 6 5 6 6 7 7 6 7 6 7 8 9 10 11 11 11 10 11 12 11 12 12 11 11 10 9 11 11 10 10 11 11 10 11 10 10 11 14 16 15 12 11 11 11 11 12 12 10 11 15 12 12 17 18 18 17 18 19 20 21 18 15 16 18 20 20 21 20
6 6 8 7 7 9 10 9 9 10 10 10 9 9 8 7 7 7 7 7 8 8 8 7 6 6 7 7 8 8 9 10 9 10 9 10 10 12 13 12 11 10 11 11 10 11 11 10 10 11 11 13 13 10 13 13 13 14 15 13 10 11 13 14 12 13 13 12 7 4 7 10 12 15 16 17 19 18 19 19 18 20 20 21 21
8 8 7 8 8 9 9 9 10 10 10 10 10 9 9 7 8 8 8 8 8 7 7 8 7 6 7 8 8 7 7 7 7 8 9 8 9 10 12 11 10 10 10 10 10 10 10 10 9 9 10 10 10 13 12 11 9 9 12 13 13 12 11 11 11 14 13 13 13 10 8 7 10 11 14 17 17 18 19 17 17 19 20 21 21
7 8 7 8 8 8 9 9 9 9 9 9 9 9 8 7 7 7 7 7 7 6 6 7 7 7 6 7 7 7 6 4 4 6 7 7 7 8 10 11 11 10 10 10 10 10 10 10 10 10 10 10 11 10 10 12 13 12 12 11 12 13 13 10 11 14 15 15 13 11 6 4 6 9 12 14 16 17 19 21 20 19 21 20 20
7 7 8 8 9 10 10 10 10 9 8 7 6 6 7 9 6 8 8 8 8 7 7 8 8 8 7 6 7 8 9 5 5 4 7 7 5 7 8 10 10 10 9 9 9 9 9 10 10 9 10 12 12 14 15 14 14 13 12 11 10 11 10 9 8 10 13 13 12 11 11 8 5 4 4 4 7 12 12 13 13 16 18 17 19
8 7 8 8 9 10 10 9 8 8 8 5 9 14 12 7 7 7 7 7 7 7 7 7 8 8 8 8 8 16 17 12 5 5 4 7 9 7 6 9 8 9 9 8 9 9 9 10 10 10 11 12 12 13 12 11 10 11 12 13 13 12 11 9 5 8 13 14 12 12 9 14 11 7 3 4 5 6 6 7 10 15 20 22 21
7 7 7 9 9 9 10 9 9 8 7 7 15 15 16 16 9 6 7 7 7 8 8 7 8 8 8 9 7 10 12 11 11 13 8 2 4 9 7 10 9 6 7 9 8 9 9 8 8 9 10 11 12 11 12 11 11 11 11 11 11 11 12 12 14 8 11 15 12 10 8 12 12 12 11 12 12 8 4 5 11 14 14 15 18
6 6 7 8 9 8 8 9 8 8 6 11 15 15 15 15 12 7 8 7 8 8 8 9 8 8 8 8 8 8 8 13 11 10 11 3 2 6 6 6 10 7 5 4 7 8 8 8 8 9 9 9 11 11 12 13 12 11 11 10 11 11 12 11 10 11 9 15 13 10 9 9 9 10 9 10 9 9 10 15 20 19 13 14 16
5 6 7 8 8 8 8 9 8 8 6 13 15 16 15 14 13 8 9 8 9 9 9 9 9 9 8 8 8 9 9 18 13 13 11 8 6 8 7 6 4 8 8 9 9 6 5 8 7 8 8 8 10 10 12 13 11 12 12 12 11 11 10 10 9 9 10 14 14 12 10 8 8 8 9 9 9 10 11 15 20 19 21 13 15
6 6 7 8 7 8 8 8 8 7 7 10 14 15 14 14 13 7 9 8 9 9 9 9 9 9 9 9 8 9 10 11 13 12 11 12 5 2 3 7 4 5 8 8 10 11 9 6 7 7 6 6 8 8 10 10 13 12 12 13 14 13 12 11 10 10 7 12 14 12 8 10 8 7 8 8 8 9 9 14 18 19 19 20 13
6 6 6 6 6 7 7 7 7 7 5 12 13 13 13 13 13 5 7 7 7 8 8 9 9 9 9 8 8 8 9 10 11 13 13 11 7 7 4 4 8 4 3 4 4 5 5 6 6 5 3 5 5 7 8 10 11 11 11 12 13 12 10 9 6 9 6 11 15 13 9 11 8 8 6 7 8 9 10 12 19 20 20 19 18
6 6 6 5 7 7 7 7 6 7 7 13 13 13 14 14 12 4 5 5 5 7 7 8 9 9 8 8 7 8 9 10 14 19 18 11 8 9 10 7 7 7 2 1 3 3 4 5 5 3 0 3 5 4 9 10 10 10 11 9 9 11 12 12 13 12 10 11 15 14 9 9 10 9 6 4 8 11 11 11 16 20 21 20 19
6 6 5 5 6 7 7 7 7 6 7 11 13 14 15 14 10 2 5 5 5 5 6 7 8 8 8 9 8 8 9 10 15 18 19 14 9 9 9 9 7 7 7 3 3 4 6 10 13 11 4 3 4 10 16 17 13 12 12 14 16 13 14 15 13 12 12 12 13 15 12 10 12 9 8 3 8 11 12 12 12 17 20 19 19
6 6 6 7 8 8 8 7 6 6 6 10 14 14 14 15 10 1 5 5 6 6 5 5 5 6 10 15 12 8 9 9 14 16 17 13 8 9 8 8 9 7 7 7 4 6 4 11 12 14 9 5 6 9 14 16 17 15 14 16 14 12 14 12 12 12 10 11 14 16 9 10 11 9 9 1 4 9 11 11 13 14 17 15 18
6 5 5 7 7 7 7 7 9 8 7 8 13 13 15 15 11 2 6 4 4 4 5 6 5 5 6 8 12 11 9 11 15 15 15 12 7 8 7 7 9 8 8 7 5 4 4 5 7 7 8 11 8 8 10 15 17 16 14 13 12 12 12 12 12 12 9 10 14 17 11 11 11 10 10 6 4 4 10 11 13 14 14 13 13
Wind_Direction
224 195 207 237 235 155 95 283 297 255 221 215 230 263 245 248 253 268 271 276 275 274 279 282 298 302 283 262 269 271 273 268 219 226 253 262 154 184 189 187 186 185 189 195 203 215 223 227 225 222 225 194 191 195 204 219 235 235 182 199 198 196 194 201 192 186 181 167 158 156 163 172 141 170 186 177 143 127 122 136 137 132 132 128 121
284 266 234 158 311 343 45 279 222 255 245 278 230 240 273 283 299 283 284 280 275 275 259 263 270 274 275 271 284 289 291 284 272 231 226 238 255 176 193 193 191 193 194 197 203 211 219 224 223 223 226 206 188 188 197 209 214 227 198 200 203 198 203 204 197 192 180 178 176 173 175 180 171 198 167 177 179 149 138 145 142 140 134 128 127
287 269 30 340 21 357 271 213 251 275 8 276 318 319 319 295 266 274 287 296 299 293 292 282 268 265 265 276 276 292 289 298 288 296 276 231 238 70 199 197 198 203 200 199 203 210 215 219 221 220 225 204 183 184 189 204 210 217 214 199 199 200 203 203 196 190 187 185 185 184 199 203 171 198 177 177 218 178 161 160 145 142 138 135 128
253 321 151 233 323 322 279 324 312 296 338 343 325 332 307 300 314 306 283 280 276 274 268 271 279 282 285 274 264 253 268 292 291 274 264 251 183 82 67 91 223 246 226 209 206 207 212 217 222 221 223 208 184 178 187 200 211 216 209 198 196 195 199 201 195 191 195 198 201 197 204 218 197 187 206 185 210 172 175 172 155 151 146 140 135
358 321 293 243 192 214 274 306 284 312 8 0 325 290 268 270 266 284 277 269 276 276 276 275 278 279 280 282 278 255 258 254 233 284 297 78 191 188 144 191 201 230 237 229 217 211 210 214 221 226 228 222 186 190 197 213 219 211 198 196 194 197 199 201 202 200 203 201 207 204 202 208 209 190 208 199 207 185 178 176 164 156 156 150 142
165 208 287 337 281 167 243 247 273 35 295 252 271 289 297 300 298 293 297 310 302 294 291 289 288 293 294 304 301 295 298 283 291 275 285 275 164 215 197 201 204 215 216 240 236 224 216 214 217 222 229 230 229 207 210 218 216 201 200 196 197 202 204 202 206 208 202 203 209 208 215 207 211 194 199 201 204 197 182 181 170 160 153 153 148
169 259 22 279 270 251 15 19 35 348 295 323 323 282 282 310 323 320 320 309 303 302 301 297 300 300 297 290 289 290 261 247 257 255 267 270 249 198 191 199 211 27 292 240 234 231 226 219 216 220 225 229 218 210 209 215 217 208 200 199 203 205 210 207 207 209 205 211 213 208 215 210 204 196 196 190 198 188 192 185 178 166 160 158 153
345 137 222 287 339 358 327 57 1 270 355 341 301 306 336 328 329 327 319 311 305 303 304 303 303 301 300 296 291 282 277 279 263 274 259 283 275 256 206 206 159 169 227 244 229 228 226 223 222 221 221 221 222 215 214 217 214 213 204 208 206 205 209 209 209 213 215 215 214 206 214 213 202 203 194 186 191 193 195 189 189 171 164 159 153
138 218 121 271 246 307 44 30 344 6 337 326 310 334 316 332 338 335 328 321 321 317 321 323 316 311 308 305 305 306 299 290 271 248 228 233 250 263 261 214 198 167 219 249 255 321 259 234 229 226 223 220 222 218 218 218 217 214 209 208 209 204 207 210 206 210 214 216 211 203 210 214 196 206 191 186 183 196 204 194 187 173 163 159 154
169 43 70 288 306 50 11 44 342 20 328 289 282 304 351 15 342 333 329 319 315 317 316 312 310 311 314 316 309 306 302 294 287 277 262 254 248 290 288 276 254 202 176 212 149 252 258 235 230 229 223 219 220 219 218 219 219 217 212 205 210 208 203 205 209 207 209 216 212 204 208 213 202 208 194 186 192 194 205 198 174 169 165 163 154
51 39 28 4 346 23 36 2 360 322 309 342 356 356 9 358 337 323 315 307 303 305 306 313 314 313 310 303 299 294 287 278 276 279 274 273 280 231 238 256 17 298 113 137 182 216 242 246 230 227 226 220 216 216 219 219 220 221 214 209 209 209 203 205 207 203 207 212 208 206 206 209 203 205 209 191 195 194 206 193 173 171 169 166 155
62 50 39 29 354 8 29 341 4 348 12 359 3 350 345 338 322 322 323 313 303 300 316 320 312 307 306 305 299 292 284 279 269 264 269 276 278 274 277 301 309 282 280 198 211 229 234 264 286 262 241 219 217 217 219 220 219 223 222 212 210 211 206 206 210 208 206 214 212 206 205 207 201 203 205 201 195 198 201 197 186 174 173 172 164
26 32 14 8 12 18 9 1 9 3 9 351 347 334 326 318 322 328 327 330 327 338 326 339 320 317 322 305 303 293 282 278 270 266 275 296 317 335 289 283 266 232 216 208 254 264 307 251 253 253 260 248 217 217 218 220 219 220 223 219 212 212 211 207 209 212 204 210 209 209 206 207 204 204 204 209 200 201 195 197 196 180 173 170 168
45 20 32 14 3 11 7 360 5 11 348 342 337 334 326 332 339 338 347 336 327 318 347 359 339 331 323 320 305 300 304 292 314 5 344 264 244 249 263 257 256 242 187 153 203 190 239 245 246 240 254 288 290 237 218 218 220 217 218 224 217 214 213 210 207 210 210 205 207 206 204 205 203 202 202 209 202 201 194 196 194 190 182 177 171
47 8 44 36 16 17 12 10 2 0 349 336 346 331 339 344 348 351 338 333 319 338 357 21 322 321 306 292 324 327 324 323 31 336 325 300 266 258 260 264 270 261 203 179 185 201 215 213 219 225 249 251 250 261 223 211 211 211 213 219 223 212 212 212 211 210 215 209 207 206 201 203 203 201 204 209 208 200 198 192 196 193 191 186 180
29 10 24 35 22 19 18 354 344 355 337 330 342 343 335 338 345 341 337 339 350 333 330 331 318 338 341 340 306 305 314 352 329 315 299 294 295 272 266 268 276 296 250 233 225 213 210 201 229 213 212 218 227 235 255 221 209 208 209 215 221 211 212 213 203 212 215 210 204 204 198 201 200 200 204 208 210 202 199 193 195 193 189 190 184
24 6 19 27 20 13 4 318 328 327 332 326 336 333 336 340 343 344 356 6 338 325 320 341 334 7 348 327 323 314 336 313 329 291 351 334 308 307 282 271 276 276 276 270 235 219 214 202 215 229 219 196 217 238 288 257 215 210 207 211 214 215 217 219 210 211 214 211 199 201 199 198 201 198 205 205 205 204 198 196 194 193 193 189 184
8 13 28 33 8 353 343 325 325 334 323 320 305 340 337 348 358 354 356 358 344 328 331 340 338 344 72 166 156 275 311 321 322 317 327 255 316 308 300 297 253 264 264 271 266 243 214 221 202 217 230 234 220 232 248 248 218 211 204 205 208 210 213 221 221 213 211 211 205 201 201 200 201 200 203 204 203 202 198 198 196 193 194 188 182
8 22 10 36 9 335 332 325 342 328 325 318 356 8 1 347 356 0 348 341 345 339 337 340 333 354 354 338 275 261 257 309 327 307 324 341 325 326 325 326 305 248 265 269 262 245 228 215 222 215 217 217 209 195 225 230 238 232 204 202 203 206 208 211 224 219 214 214 208 204 206 200 198 199 203 204 204 200 196 198 195 192 193 189 183
52 17 318 38 14 349 352 1 349 352 346 13 11 7 358 347 350 354 345 350 347 337 335 351 351 336 346 333 321 307 308 270 280 304 299 318 326 332 332 335 324 297 267 272 272 248 244 223 223 224 214 212 216 224 223 238 246 238 222 204 201 203 205 208 213 224 212 215 207 206 205 200 198 197 201 203 202 198 196 194 190 189 191 189 188
41 5 6 33 20 8 2 1 2 8 13 12 9 356 353 344 349 350 348 345 350 344 346 357 350 351 342 341 329 342 340 338 319 334 337 323 318 335 330 330 328 320 312 272 258 249 244 238 219 211 218 224 218 214 198 212 227 235 231 212 201 201 203 205 207 213 208 222 214 206 201 200 197 195 198 199 200 198 196 193 187 186 187 188 187
45 42 32 23 16 13 5 6 19 20 17 9 360 352 345 344 346 353 350 356 10 358 12 2 356 346 350 344 349 346 346 341 352 346 335 330 323 323 330 331 334 329 313 298 270 259 246 238 223 204 211 226 233 231 211 207 218 235 247 230 206 200 202 202 203 204 208 215 220 206 202 201 197 192 194 198 199 198 198 196 191 186 186 185 186
53 55 43 18 20 13 9 22 29 22 12 359 349 350 337 344 356 356 359 13 18 7 16 15 10 5 8 6 357 352 356 347 341 343 342 333 329 331 328 333 326 322 331 316 298 281 270 249 317 358 292 250 243 232 223 222 215 216 222 242 213 203 200 200 200 202 203 208 209 202 204 202 199 193 191 196 199 200 199 199 196 192 186 184 187
57 55 37 20 11 18 20 26 25 14 3 344 357 342 353 354 358 11 10 18 22 18 23 16 17 8 9 4 354 348 358 360 347 339 342 339 334 323 325 332 325 329 317 321 323 326 319 9 19 218 264 262 244 236 220 217 227 222 223 237 226 208 202 200 200 201 201 205 199 203 206 208 201 198 195 194 197 202 200 200 198 193 189 185 190
56 47 38 20 12 22 30 28 5 3 3 357 353 355 3 359 24 15 16 13 28 24 19 21 17 6 4 359 352 353 2 352 338 336 336 334 335 331 334 337 332 325 328 332 338 9 5 0 282 262 251 259 257 241 224 259 276 258 233 234 230 223 208 201 199 199 201 201 198 201 207 211 205 202 202 200 197 200 200 202 199 194 191 187 193
58 51 42 21 35 52 37 20 9 14 16 359 347 9 8 24 26 19 16 12 34 31 19 20 17 2 2 1 355 359 2 348 339 345 347 342 345 342 336 333 326 321 328 339 351 0 349 349 332 321 321 319 297 281 244 205 208 213 219 223 214 213 214 204 200 200 201 202 200 199 206 209 209 205 206 204 198 196 195 196 195 193 190 194 197
58 54 43 44 42 67 52 32 22 20 11 5 8 26 30 20 27 16 14 18 37 32 12 16 8 356 359 6 349 5 0 355 347 352 348 348 338 337 335 338 342 342 338 341 346 7 11 359 343 18 358 341 315 294 271 251 248 197 215 220 213 210 204 207 202 202 201 204 201 203 203 205 205 200 209 209 202 196 196 192 189 189 190 195 201
59 82 59 47 41 54 58 75 56 35 21 24 38 38 31 25 28 24 25 22 33 30 13 13 1 360 5 9 358 4 349 349 346 348 356 345 338 339 341 345 347 344 338 343 354 355 15 2 344 17 356 351 341 323 301 289 224 200 207 221 225 211 214 213 206 203 204 202 204 206 208 204 202 196 198 213 209 200 196 193 188 188 188 194 200
103 78 79 77 77 142 129 120 96 56 37 24 45 45 39 22 32 35 27 24 24 30 19 17 3 4 4 12 360 356 345 345 350 3 355 344 341 350 2 347 343 343 348 347 345 355 6 10 3 351 358 353 350 351 342 311 262 205 195 218 221 223 202 211 213 208 204 205 202 203 215 208 202 199 199 206 209 201 198 195 189 188 189 195 200
82 107 160 156 181 180 154 97 74 53 37 23 38 57 48 39 36 30 21 33 27 34 32 21 10 9 2 7 4 2 353 355 357 354 347 352 353 8 6 346 345 355 344 346 341 17 6 13 17 357 354 356 3 351 358 356 332 240 234 216 220 222 201 202 215 218 211 203 200 201 211 215 207 204 202 204 205 204 197 200 190 189 192 197 200
199 191 178 174 179 115 72 87 75 64 45 23 28 52 56 48 30 21 18 36 36 29 34 24 23 12 6 9 9 5 358 360 353 4 4 351 10 10 3 343 352 8 354 347 347 13 30 10 7 8 2 2 5 357 358 358 357 336 289 274 246 216 191 202 204 210 230 216 209 205 206 214 211 206 204 204 204 204 200 201 202 197 197 195 198
246 209 130 73 56 69 65 70 76 71 57 42 35 51 68 64 35 26 23 31 41 33 33 38 24 16 10 16 12 7 6 5 4 10 0 352 356 2 3 353 354 17 5 358 355 356 18 18 359 2 7 1 8 7 358 354 354 356 346 343 337 348 229 236 215 204 206 214 214 211 213 211 210 220 215 209 206 205 204 202 202 202 199 197 195
301 50 97 104 126 73 59 53 68 74 65 63 48 45 65 73 57 28 37 37 42 42 35 37 32 19 15 16 13 13 15 15 8 8 7 1 360 357 351 354 357 7 17 12 360 350 353 13 7 11 2 2 8 9 2 356 355 360 1 1 356 343 313 244 234 218 214 213 212 211 211 212 212 209 219 219 216 210 206 203 203 203 200 198 197
200 46 59 58 54 71 60 52 59 78 83 69 55 47 39 58 71 52 40 45 39 46 44 38 33 22 17 13 17 15 15 18 14 17 10 5 6 2 357 350 355 353 10 17 7 354 347 353 1 8 9 8 3 9 8 356 355 357 359 360 358 4 359 334 271 239 224 221 219 217 210 211 208 210 213 219 221 214 209 202 203 203 203 199 199
135 153 105 67 84 89 76 73 60 67 73 80 74 50 33 33 38 44 48 46 46 49 50 44 37 29 20 16 16 13 14 16 14 14 13 12 9 8 360 355 352 351 1 4 13 8 358 357 357 6 9 6 9 360 360 357 349 354 356 357 350 358 357 347 334 284 225 224 228 223 217 211 209 208 208 214 212 219 213 203 203 202 199 202 200
60 63 73 65 38 56 63 48 34 28 30 29 19 46 46 38 26 34 44 40 45 59 56 50 44 36 27 21 20 17 12 16 12 11 14 16 16 10 6 2 356 348 4 1 6 29 4 5 3 8 7 3 4 3 1 354 356 354 354 346 347 359 353 349 344 340 306 237 227 229 225 214 212 213 213 215 215 210 209 207 205 206 203 200 201
90 67 59 52 63 60 58 52 41 38 32 26 19 7 48 40 36 24 42 51 45 53 63 58 52 43 35 32 29 23 17 18 13 10 13 17 17 14 13 4 1 352 9 9 1 20 19 14 4 6 5 7 3 3 7 359 352 352 353 353 351 352 349 346 350 352 344 312 252 233 225 219 215 217 219 217 215 213 217 215 209 210 206 205 201
68 67 64 57 59 64 59 54 50 46 38 29 19 9 8 43 33 28 19 53 49 35 37 46 55 54 41 31 36 26 22 22 15 4 7 20 21 20 17 11 6 2 13 16 11 15 23 20 8 1 10 4 0 6 7 3 357 351 350 351 351 358 353 351 5 9 2 353 333 276 250 247 237 228 229 227 221 210 213 212 210 211 209 208 202
76 74 72 67 61 65 64 57 54 48 42 31 20 9 0 25 46 35 27 38 53 49 40 30 28 52 55 39 34 26 25 24 17 9 357 13 28 25 22 16 10 8 11 16 15 18 22 16 12 12 5 9 4 358 2 3 358 352 345 343 352 354 351 352 13 5 3 352 348 320 275 253 229 226 224 226 226 220 215 217 215 212 212 208 205
89 85 84 77 71 68 63 62 54 50 43 33 18 5 5 3 49 39 43 36 37 41 45 39 32 30 50 56 39 28 26 33 12 11 8 351 26 32 28 22 16 17 17 17 18 19 20 18 17 8 10 1 4 6 356 358 1 3 0 351 350 350 345 347 43 15 357 354 347 346 322 287 277 254 246 237 232 226 220 220 216 214 215 210 206
89 89 86 85 81 74 67 62 59 48 43 34 24 2 1 356 27 49 36 38 39 35 35 35 30 30 30 50 55 33 19 51 24 5 14 4 5 40 32 32 19 19 23 22 21 21 19 21 18 13 12 9 10 4 5 8 3 350 341 351 351 346 337 340 25 28 12 352 342 346 354 343 285 265 251 253 244 237 238 231 224 220 223 217 210
81 78 81 82 78 76 75 70 63 51 38 30 7 21 27 15 11 48 41 35 35 36 36 32 27 26 27 25 38 44 29 21 6 339 11 12 347 7 52 49 24 25 24 26 26 20 18 23 18 13 14 14 9 8 5 2 350 347 352 358 356 346 341 347 15 30 11 3 353 350 0 9 344 319 282 266 266 228 239 227 227 223 218 210 208
78 83 81 78 78 77 78 76 64 52 38 13 11 21 18 21 17 37 46 40 33 33 32 30 29 23 20 27 18 30 33 12 8 354 333 305 339 300 35 65 63 33 22 30 29 22 23 19 20 18 19 15 10 5 7 358 358 1 355 358 352 349 353 355 357 352 19 7 355 343 2 7 2 2 18 16 360 343 297 279 292 265 248 225 216
81 82 81 81 83 83 79 74 63 50 41 12 18 17 18 15 15 32 51 49 37 37 31 26 27 19 18 21 24 18 16 11 4 2 354 297 265 305 303 53 74 47 38 35 33 29 23 19 21 30 19 20 9 7 5 3 358 357 1 2 359 352 355 354 358 358 3 8 353 353 350 11 8 17 17 7 4 6 6 5 3 355 301 246 224
94 85 86 88 85 83 78 73 64 46 40 15 17 17 14 10 11 17 66 51 48 46 34 32 25 17 16 17 21 21 11 5 4 354 350 349 213 234 267 268 71 59 32 27 40 48 20 23 23 37 27 14 15 12 10 4 355 358 355 2 359 357 352 351 359 345 19 8 1 357 343 356 7 11 13 3 360 0 360 5 359 354 353 309 241
92 91 86 85 87 83 82 79 68 50 37 10 19 17 11 4 4 355 82 67 63 53 44 38 30 22 15 17 20 19 12 9 5 353 344 348 360 147 42 28 16 62 23 17 30 31 29 23 26 44 31 26 28 10 11 10 10 5 1 359 353 351 354 353 354 346 26 21 13 336 333 349 359 357 12 1 360 4 4 356 355 355 351 346 304
99 96 88 86 85 85 85 84 80 58 38 20 23 17 13 6 355 349 82 79 77 69 57 47 38 31 22 19 24 20 17 11 4 356 358 344 5 9 13 38 30 42 69 19 8 1 2 2 24 55 35 31 29 18 18 21 22 15 8 4 355 350 347 344 355 354 18 26 10 2 347 327 341 351 10 11 1 11 6 354 359 354 351 346 340
92 94 95 90 87 86 86 86 82 61 40 24 21 18 14 10 351 86 79 79 81 84 75 61 55 40 30 25 21 21 18 16 1 3 5 353 15 6 14 9 23 17 28 139 315 326 338 335 344 46 2 49 7 12 36 32 22 20 13 8 7 6 3 5 7 354 9 14 12 359 340 328 347 348 351 20 14 19 4 4 355 354 351 347 346
99 92 96 89 86 86 85 84 80 68 45 22 22 19 16 12 4 91 96 95 84 87 87 84 71 54 41 31 30 21 17 15 1 8 7 357 23 10 15 3 4 9 2 358 270 323 337 355 13 45 138 174 94 51 54 45 37 23 17 20 18 8 11 11 6 1 4 360 5 356 328 340 348 344 339 54 32 23 12 4 358 356 351 350 347
95 87 85 85 80 74 70 72 75 78 54 29 25 20 17 10 4 40 109 113 110 85 78 80 83 69 43 36 31 24 15 8 3 9 9 3 25 16 7 6 353 2 355 343 13 39 47 26 18 19 47 160 199 54 56 54 43 37 33 28 14 13 19 15 6 360 348 0 1 352 331 360 337 350 342 281 57 36 13 7 1 357 357 353 352
109 113 107 100 97 84 78 74 75 74 57 35 26 24 22 17 11 9 80 69 64 92 101 80 63 61 60 33 24 17 9 359 1 4 7 11 7 20 8 5 2 350 345 328 2 28 29 36 22 23 23 26 38 49 46 57 57 51 47 37 21 21 16 11 3 354 353 4 360 350 344 354 348 1 5 349 28 31 27 10 5 3 1 1 355